• Processing (Info)

  • MPEC 2007-T53 : 2007 TL16

    The following Minor Planet Electronic Circular may be linked-to from your own Web pages, but must not otherwise be redistributed electronically.

    A form allowing access to any MPEC is at the bottom of this page.


    Read MPEC 2007-T52 Read MPEC 2007-T54


    M.P.E.C. 2007-T53                                Issued 2007 Oct.  9, 20:42 UT
    
         The Minor Planet Electronic Circulars contain information on unusual
             minor planets and routine data on comets.  They are published
       on behalf of Commission 20 of the International Astronomical Union by the
              Minor Planet Center, Smithsonian Astrophysical Observatory,
                              Cambridge, MA 02138, U.S.A.
    
                 Prepared using the Tamkin Foundation Computer Network
    
                                  MPC@CFA.HARVARD.EDU
              URL http://www.cfa.harvard.edu/iau/mpc.html  ISSN 1523-6714
    
                                       2007 TL16
    
    Observations:
         K07T16L* C2007 10 09.28741 01 40 47.38 +37 26 58.0          18.7 V ET053703
         K07T16L  C2007 10 09.29968 01 40 34.60 +37 27 43.0          19.3 V ET053703
         K07T16L  C2007 10 09.31214 01 40 21.54 +37 28 26.5          19.0 V ET053703
         K07T16L  C2007 10 09.32471 01 40 08.43 +37 29 08.2          19.3 V ET053703
         K07T16L  C2007 10 09.36293 01 39 29.34 +37 31 06.9          19.4 V ET053703
         K07T16L  C2007 10 09.37242 01 39 19.72 +37 31 35.2          19.2 V ET053703
         K07T16L  C2007 10 09.38182 01 39 10.33 +37 32 00.3          19.3 V ET053703
         K07T16L  C2007 10 09.39090 01 39 01.33 +37 32 24.2          19.6 V ET053703
         K07T16L 5C2007 10 09.43368 01 38 23.00 +37 34 10.5          19.2 R ET053673
         K07T16L 5C2007 10 09.43762 01 38 19.27 +37 34 19.9                 ET053673
         K07T16L 5C2007 10 09.44306 01 38 14.11 +37 34 33.5                 ET053673
         K07T16L 5C2007 10 09.44792 01 38 09.56 +37 34 43.8                 ET053673
         K07T16L  C2007 10 09.77159 01 34 41.66 +37 46 33.1          19.1 R ET053024
         K07T16L  C2007 10 09.77945 01 34 36.04 +37 46 59.2          19.3 R ET053024
         K07T16L  C2007 10 09.78589 01 34 31.41 +37 47 20.1          19.2 R ET053024
    
    Observer details:
    024 Heidelberg-Konigstuhl.  Observer F. Hormuth.  0.70-m reflector + CCD.
    673 Table Mountain Observatory, Wrightwood.  Observer J. Young.  0.61-m f/16
        Cassegrain + CCD.
    703 Catalina Sky Survey.  Observer R. A. Kowalski.  Measurers E. C. Beshore,
        A. Boattini, G. J. Garradd, A. R. Gibbs, A. D. Grauer, R. E. Hill,
        R. A. Kowalski, S. M. Larson, R. H. McNaught.  0.68-m Schmidt + CCD.
    
    Orbital elements:
    2007 TL16                                                Earth MOID = 0.0021 AU
    Epoch 2007 Oct. 27.0 TT = JDT 2454400.5                 MPC
    M  35.57791              (2000.0)            P               Q
    n   0.55675951     Peri.  303.81059     +0.72607005     +0.68639041
    a   1.4633817      Node    13.01013     -0.55496306     +0.62025121
    e   0.4013109      Incl.   10.52332     -0.40600282     +0.37967966
    P   1.77           H   26.0           G   0.15           U   7
    Residuals in seconds of arc
    071009 703  0.4-  0.7-    071009 703  0.3-  1.1+    071009 673  0.1+  0.6+
    071009 703  0.8+  0.0     071009 703  0.2-  0.2+    071009 673  0.3+  0.3-
    071009 703  0.3+  0.0     071009 703  0.2-  0.3-    071009 024  0.1+  0.1-
    071009 703  0.3-  0.4-    071009 673  0.3+  0.1-    071009 024  0.2+  0.0
    071009 703  0.5+  0.1-    071009 673  0.4+  0.2-    071009 024  0.2+  0.2-
    
    Ephemeris:
    2007 TL16                a,e,i = 1.46, 0.40, 11                  q = 0.8761
    Date    TT    R. A. (2000) Decl.     Delta      r     Elong.  Phase     V
    2007 10 07    03 04.80   +29 31.6    0.00846  1.006   139.7    39.9    17.2
    2007 10 09    01 45.26   +37 08.6    0.0209   1.017   146.9    32.5    19.0
    2007 10 11    01 23.52   +38 24.6    0.0340   1.027   148.0    31.0    20.0
    2007 10 13    01 13.59   +38 49.4    0.0471   1.038   148.7    30.0    20.7
    2007 10 15    01 07.97   +38 57.9    0.0604   1.050   149.2    29.1    21.3
    2007 10 17    01 04.41   +38 58.8    0.0737   1.061   149.6    28.4    21.7
    
    Sonia Keys                   (C) Copyright 2007 MPC           M.P.E.C. 2007-T53
    

    Read MPEC 2007-T52 Read MPEC 2007-T54


    MPEC number:

    Enter an MPEC number in one of the following forms:

    • 1997-B01 (the full form)
    • J97B01 (the packed version of the full form)
    • B01 (the abbreviated form)